• In Hungary
  • List of Countries
  • For 7 days
  • Water Temperature
  • Satellite Maps
  • Weather Map
  • News
  • Weather Widgets
  • user-avatar
    Login

    Hourly Weather Borec

    Today, 20 November, Monday

    Time Temperature Precipitation Wind Pressure Humidity
    00:00 -2°C° 0 mm 2 mps 746 mmHg 92%
    01:00 -2°C° 0 mm 2 mps 746 mmHg 92%
    02:00 -2°C° 0 mm 2 mps 746 mmHg 91%
    03:00 -2°C° 0 mm 2 mps 746 mmHg 91%
    04:00 -2°C° 0 mm 2 mps 746 mmHg 91%
    05:00 -2°C° 0 mm 2 mps 746 mmHg 91%
    06:00 -2°C° 0 mm 2 mps 746 mmHg 91%
    07:00 -2°C° 0 mm 2 mps 746 mmHg 90%
    08:00 -2°C° 0 mm 2 mps 746 mmHg 88%
    09:00 +1°C° 0 mm 2 mps 747 mmHg 82%
    10:00 +2°C° 0 mm 2 mps 747 mmHg 76%
    11:00 +3°C° 0 mm 2 mps 747 mmHg 71%
    12:00 +3°C° 0 mm 2 mps 747 mmHg 69%
    13:00 +3°C° 0 mm 2 mps 746 mmHg 68%
    14:00 +4°C° 0 mm 2 mps 746 mmHg 67%
    15:00 +2°C° 0 mm 2 mps 746 mmHg 72%
    16:00 +1°C° 0 mm 2 mps 746 mmHg 78%
    17:00 -1°C° 0 mm 2 mps 746 mmHg 83%
    18:00 -1°C° 0 mm 2 mps 746 mmHg 83%
    19:00 -1°C° 0 mm 2 mps 745 mmHg 84%
    20:00 -1°C° 0 mm 2 mps 745 mmHg 84%
    21:00 -1°C° 0 mm 2 mps 745 mmHg 84%
    22:00 -1°C° 0 mm 2 mps 745 mmHg 85%
    23:00 +1°C° 0 mm 1 mps 745 mmHg 85%

    Tomorrow, 21 November, Tuesday

    Time Temperature Precipitation Wind Pressure Humidity
    00:00 -1°C° 0 mm 2 mps 745 mmHg 87%
    01:00 -1°C° 0 mm 2 mps 745 mmHg 89%
    02:00 -2°C° 0 mm 2 mps 745 mmHg 91%
    03:00 -2°C° 0 mm 2 mps 745 mmHg 92%
    04:00 -2°C° 0 mm 2 mps 745 mmHg 94%
    05:00 -2°C° 0 mm 2 mps 745 mmHg 95%
    06:00 -2°C° 0 mm 2 mps 745 mmHg 94%
    07:00 -2°C° 0 mm 2 mps 745 mmHg 93%
    08:00 -1°C° 0 mm 2 mps 746 mmHg 92%
    09:00 -1°C° 0 mm 2 mps 746 mmHg 88%
    10:00 +1°C° 0 mm 2 mps 746 mmHg 84%
    11:00 +2°C° 0 mm 2 mps 746 mmHg 80%
    12:00 +2°C° 0 mm 2 mps 746 mmHg 79%
    13:00 +2°C° 0 mm 2 mps 746 mmHg 78%
    14:00 +2°C° 0 mm 2 mps 746 mmHg 77%
    15:00 +2°C° 0 mm 2 mps 746 mmHg 80%
    16:00 +1°C° 0 mm 2 mps 746 mmHg 83%
    17:00 +1°C° 0 mm 2 mps 747 mmHg 86%
    18:00 +1°C° 0 mm 2 mps 747 mmHg 87%
    19:00 +1°C° 0 mm 2 mps 747 mmHg 87%
    20:00 -1°C° 0 mm 2 mps 747 mmHg 88%
    21:00 -1°C° 0 mm 2 mps 748 mmHg 89%
    22:00 -1°C° 0 mm 2 mps 748 mmHg 89%
    23:00 -1°C° 0 mm 2 mps 748 mmHg 90%

    Day after tomorrow, 22 November, Wednesday

    Time Temperature Precipitation Wind Pressure Humidity
    00:00 -1°C° 0 mm 2 mps 748 mmHg 88%
    01:00 -1°C° 0 mm 2 mps 749 mmHg 86%
    02:00 +1°C° 0 mm 1 mps 749 mmHg 85%
    03:00 -1°C° 0 mm 2 mps 749 mmHg 85%
    04:00 -1°C° 0 mm 2 mps 749 mmHg 85%
    05:00 -1°C° 0 mm 2 mps 749 mmHg 86%
    06:00 -1°C° 0 mm 2 mps 749 mmHg 86%
    07:00 -1°C° 0 mm 2 mps 750 mmHg 86%
    08:00 -1°C° 0 mm 2 mps 750 mmHg 87%
    09:00 -1°C° 0 mm 2 mps 750 mmHg 82%
    10:00 +1°C° 0 mm 2 mps 751 mmHg 77%
    11:00 +2°C° 0 mm 2 mps 751 mmHg 72%
    12:00 +2°C° 0 mm 2 mps 751 mmHg 70%
    13:00 +2°C° 0 mm 2 mps 751 mmHg 67%
    14:00 +2°C° 0 mm 2 mps 751 mmHg 65%
    15:00 +1°C° 0 mm 2 mps 751 mmHg 70%
    16:00 -1°C° 0 mm 2 mps 752 mmHg 76%
    17:00 0°C° 0 mm 1 mps 752 mmHg 81%
    18:00 0°C° 0 mm 1 mps 752 mmHg 83%
    19:00 0°C° 0 mm 1 mps 752 mmHg 86%
    20:00 -1°C° 0 mm 1 mps 753 mmHg 88%
    21:00 -1°C° 0 mm 1 mps 753 mmHg 89%
    22:00 -1°C° 0 mm 1 mps 753 mmHg 91%
    23:00 -1°C° 0 mm 1 mps 753 mmHg 92%

    23 November, Thursday

    Time Temperature Precipitation Wind Pressure Humidity
    00:00 -1°C° 0 mm 1 mps 754 mmHg 92%
    01:00 -1°C° 0 mm 1 mps 754 mmHg 93%
    02:00 -1°C° 0 mm 1 mps 754 mmHg 93%
    03:00 -1°C° 0 mm 1 mps 754 mmHg 93%
    04:00 -1°C° 0 mm 1 mps 754 mmHg 93%
    05:00 -1°C° 0 mm 1 mps 755 mmHg 93%
    06:00 -1°C° 0 mm 1 mps 755 mmHg 93%
    07:00 -1°C° 0 mm 1 mps 755 mmHg 93%
    08:00 -1°C° 0 mm 1 mps 755 mmHg 92%
    09:00 0°C° 0 mm 1 mps 756 mmHg 86%
    10:00 +1°C° 0 mm 1 mps 756 mmHg 80%
    11:00 +2°C° 0 mm 1 mps 756 mmHg 73%
    12:00 +2°C° 0 mm 1 mps 756 mmHg 72%
    13:00 +2°C° 0 mm 1 mps 756 mmHg 70%
    14:00 +1°C° 0 mm 0 mps 756 mmHg 68%
    15:00 +1°C° 0 mm 1 mps 756 mmHg 73%
    16:00 +1°C° 0 mm 1 mps 756 mmHg 77%
    17:00 0°C° 0 mm 1 mps 756 mmHg 82%
    18:00 -1°C° 0 mm 1 mps 757 mmHg 82%
    19:00 -1°C° 0 mm 1 mps 757 mmHg 82%
    20:00 -1°C° 0 mm 1 mps 757 mmHg 83%
    21:00 -1°C° 0 mm 1 mps 757 mmHg 82%
    22:00 -1°C° 0 mm 1 mps 757 mmHg 81%
    23:00 -1°C° 0 mm 1 mps 757 mmHg 80%

    24 November, Friday

    Time Temperature Precipitation Wind Pressure Humidity
    00:00 -1°C° 0 mm 1 mps 757 mmHg 79%
    01:00 -3°C° 0 mm 2 mps 757 mmHg 77%
    02:00 -2°C° 0 mm 2 mps 757 mmHg 76%
    03:00 -2°C° 0 mm 2 mps 757 mmHg 75%
    04:00 -2°C° 0 mm 2 mps 757 mmHg 74%
    05:00 -2°C° 0 mm 2 mps 757 mmHg 73%
    06:00 -2°C° 0 mm 2 mps 757 mmHg 73%
    07:00 -2°C° 0 mm 2 mps 757 mmHg 73%
    08:00 -2°C° 0 mm 2 mps 757 mmHg 74%
    09:00 -2°C° 0 mm 3 mps 757 mmHg 70%
    10:00 -1°C° 0 mm 3 mps 757 mmHg 67%
    11:00 0°C° 0 mm 3 mps 758 mmHg 63%
    12:00 0°C° 0 mm 3 mps 757 mmHg 64%
    13:00 +1°C° 0 mm 3 mps 757 mmHg 64%
    14:00 +1°C° 0 mm 3 mps 757 mmHg 64%
    15:00 0°C° 0 mm 3 mps 757 mmHg 69%
    16:00 -1°C° 0 mm 3 mps 757 mmHg 74%
    17:00 -2°C° 0 mm 2 mps 757 mmHg 78%
    18:00 -2°C° 0 mm 2 mps 757 mmHg 80%
    19:00 -2°C° 0 mm 2 mps 758 mmHg 81%
    20:00 -2°C° 0 mm 2 mps 758 mmHg 83%
    21:00 -2°C° 0 mm 2 mps 758 mmHg 84%
    22:00 -2°C° 0 mm 3 mps 758 mmHg 85%
    23:00 -2°C° 0 mm 3 mps 758 mmHg 87%

    25 November, Saturday

    Time Temperature Precipitation Wind Pressure Humidity
    00:00 -2°C° 0 mm 3 mps 758 mmHg 88%
    01:00 -2°C° 0 mm 2 mps 758 mmHg 89%
    02:00 -2°C° 0 mm 2 mps 758 mmHg 91%
    03:00 -2°C° 0 mm 2 mps 758 mmHg 92%
    04:00 -2°C° 0 mm 2 mps 757 mmHg 93%
    05:00 -2°C° 0 mm 2 mps 757 mmHg 94%
    06:00 -2°C° 0 mm 3 mps 757 mmHg 95%
    07:00 -2°C° 0 mm 3 mps 757 mmHg 95%
    08:00 -2°C° 0 mm 3 mps 757 mmHg 96%
    09:00 -1°C° 0 mm 3 mps 757 mmHg 93%
    10:00 0°C° 0 mm 3 mps 757 mmHg 91%
    11:00 +1°C° 0 mm 3 mps 757 mmHg 88%
    12:00 +2°C° 0 mm 3 mps 756 mmHg 88%
    13:00 +2°C° 0 mm 3 mps 756 mmHg 88%
    14:00 +2°C° 0 mm 3 mps 756 mmHg 88%
    15:00 +2°C° 0 mm 3 mps 756 mmHg 90%
    16:00 +1°C° 0 mm 3 mps 756 mmHg 92%
    17:00 0°C° 0 mm 3 mps 756 mmHg 94%
    18:00 0°C° 0 mm 3 mps 755 mmHg 93%
    19:00 -1°C° 0 mm 4 mps 755 mmHg 93%
    20:00 0°C° 0 mm 4 mps 755 mmHg 92%
    21:00 0°C° 0 mm 4 mps 755 mmHg 92%
    22:00 0°C° 0 mm 4 mps 755 mmHg 91%
    23:00 0°C° 0 mm 4 mps 755 mmHg 91%
    Show more